User: anonymous   Login
Location: Unspecified
(0.0000°N, 0.0000°E)
Time: 08:58:01
(UTC+00:00)
Language:

STARLINK-35579 - Orbit

View from above orbital plane
View from above orbital plane
View from above satellite
View from above satellite

Ground track
Ground track

The orbit is defined by the following mean orbital elements,

1 66562U          26145.08640444 +.00000000 +00000-0 +64970-3 0 00005
2 66562  43.0019 275.6163 0003602 266.3709  93.6731 15.27590801    05
Epoch (UTC): 25 May 2026 02:04:25
Eccentricity: 0.0003602
inclination: 43.0019°
perigee height: 481 km
apogee height: 485 km
right ascension of ascending node: 275.6163°
argument of perigee: 266.3709°
revolutions per day: 15.27590801
mean anomaly at epoch: 93.6731°

The dashed part of the orbit path shows where the satellite is in the earth's shadow,  

DLR